Temp
-7 -7 -6 -6 -6 -5 -5 -5 -5 -5 -5 -5 -6 -6 -7 -7 -7 -8 -8 -8 -8 -8 -9 -10 -11 -11 -11 -11 -11 -10 -10 -9 -9 -10 -10 -11 -9 -10 -10 -10 -10 -10 -11 -11 -11
-7 -7 -7 -6 -6 -5 -5 -5 -5 -5 -5 -6 -6 -7 -7 -7 -8 -8 -8 -8 -9 -9 -10 -11 -11 -11 -11 -11 -11 -10 -10 -9 -10 -10 -11 -11 -10 -10 -10 -11 -10 -10 -11 -10 -11
-8 -7 -7 -6 -6 -5 -5 -5 -5 -5 -6 -6 -7 -7 -7 -8 -8 -8 -8 -9 -9 -9 -10 -11 -11 -11 -11 -11 -11 -10 -10 -10 -10 -11 -10 -10 -10 -10 -10 -10 -11 -11 -11 -11 -11
-8 -7 -7 -6 -6 -5 -5 -5 -6 -6 -6 -7 -7 -7 -8 -8 -8 -8 -9 -9 -9 -9 -9 -11 -11 -11 -11 -11 -10 -10 -10 -11 -10 -10 -10 -11 -11 -10 -10 -10 -11 -11 -11 -11 -11
-8 -7 -7 -6 -6 -5 -6 -6 -6 -6 -7 -7 -7 -7 -8 -8 -8 -8 -9 -8 -8 -8 -8 -10 -10 -10 -11 -11 -10 -9 -10 -11 -11 -10 -10 -10 -11 -11 -11 -11 -10 -11 -12 -11 -11
-8 -7 -7 -6 -6 -6 -6 -6 -7 -7 -7 -7 -7 -7 -8 -8 -8 -8 -8 -8 -8 -8 -8 -9 -9 -10 -10 -10 -9 -10 -11 -11 -11 -10 -11 -11 -11 -10 -11 -11 -11 -12 -12 -11 -11
-7 -7 -7 -6 -6 -6 -7 -7 -7 -7 -7 -7 -7 -8 -8 -8 -8 -8 -8 -8 -9 -9 -9 -10 -10 -10 -10 -9 -10 -11 -11 -11 -11 -11 -11 -11 -11 -11 -11 -12 -12 -11 -12 -12 -12
-7 -7 -7 -7 -7 -7 -7 -7 -7 -7 -7 -7 -7 -8 -8 -8 -8 -8 -8 -8 -9 -10 -10 -10 -10 -10 -10 -11 -11 -11 -11 -11 -11 -11 -12 -12 -11 -11 -10 -11 -11 -10 -11 -11 -11
-7 -7 -7 -7 -7 -7 -7 -7 -7 -7 -7 -7 -7 -8 -8 -8 -9 -9 -8 -9 -9 -9 -9 -10 -10 -11 -11 -11 -11 -11 -11 -11 -11 -11 -11 -12 -11 -11 -11 -11 -11 -11 -10 -11 -12
-7 -8 -7 -7 -7 -7 -7 -7 -7 -7 -7 -7 -7 -8 -8 -8 -9 -9 -9 -9 -9 -9 -9 -10 -11 -11 -11 -11 -11 -11 -11 -11 -12 -11 -11 -12 -12 -12 -11 -12 -12 -12 -11 -12 -14
-8 -8 -8 -7 -7 -8 -8 -8 -8 -8 -8 -8 -8 -8 -8 -8 -9 -9 -9 -10 -10 -11 -11 -11 -11 -11 -11 -11 -11 -11 -11 -11 -12 -11 -11 -12 -12 -12 -12 -12 -12 -12 -12 -13 -13
-8 -8 -8 -8 -8 -8 -7 -7 -8 -8 -8 -8 -8 -8 -8 -8 -9 -9 -10 -10 -10 -11 -11 -11 -11 -11 -10 -11 -11 -11 -11 -11 -11 -11 -11 -12 -12 -12 -12 -12 -12 -13 -13 -13 -13
-8 -8 -8 -8 -8 -7 -7 -8 -8 -8 -8 -8 -8 -9 -9 -8 -9 -9 -10 -10 -10 -10 -10 -10 -11 -10 -11 -11 -11 -11 -11 -12 -12 -12 -12 -11 -12 -12 -13 -13 -13 -13 -13 -13 -13
-8 -8 -8 -8 -8 -8 -8 -8 -8 -8 -8 -9 -9 -9 -9 -9 -9 -10 -10 -10 -10 -10 -10 -10 -11 -11 -11 -11 -11 -11 -11 -11 -11 -12 -12 -12 -12 -12 -13 -14 -13 -14 -14 -13 -14
-8 -8 -8 -8 -8 -8 -9 -9 -9 -9 -9 -9 -9 -9 -9 -10 -10 -10 -11 -10 -10 -11 -11 -11 -11 -12 -11 -11 -11 -11 -11 -11 -12 -12 -12 -11 -12 -13 -13 -13 -13 -14 -14 -13 -13
-8 -8 -8 -8 -8 -9 -9 -9 -9 -10 -9 -9 -9 -9 -9 -10 -10 -10 -10 -10 -10 -11 -11 -11 -11 -11 -11 -11 -11 -11 -12 -12 -12 -12 -12 -11 -12 -12 -13 -14 -14 -13 -13 -13 -13
-8 -8 -8 -9 -9 -9 -9 -9 -10 -10 -10 -10 -10 -10 -11 -10 -11 -10 -10 -11 -11 -11 -11 -11 -11 -11 -11 -11 -11 -12 -12 -11 -12 -11 -11 -11 -12 -13 -13 -14 -14 -13 -13 -13 -13
-9 -8 -9 -9 -9 -9 -9 -10 -11 -10 -9 -10 -10 -11 -11 -11 -10 -11 -11 -10 -11 -11 -11 -11 -11 -11 -11 -11 -11 -10 -10 -11 -12 -12 -12 -12 -12 -13 -14 -13 -13 -14 -13 -13 -13
-9 -9 -9 -9 -9 -9 -10 -11 -10 -10 -10 -10 -11 -11 -11 -11 -11 -11 -11 -11 -11 -11 -11 -11 -11 -11 -11 -11 -11 -10 -10 -11 -11 -11 -12 -12 -13 -13 -13 -13 -14 -13 -13 -13 -14
-9 -9 -9 -9 -9 -10 -10 -11 -11 -10 -10 -10 -10 -11 -11 -11 -11 -11 -11 -11 -11 -11 -11 -11 -11 -11 -11 -11 -11 -11 -11 -12 -12 -12 -12 -13 -13 -13 -13 -14 -14 -13 -13 -14 -14
-9 -9 -9 -9 -9 -10 -10 -11 -11 -10 -10 -10 -10 -11 -11 -12 -12 -12 -11 -11 -11 -11 -12 -12 -12 -11 -11 -11 -11 -11 -12 -12 -12 -12 -13 -13 -13 -13 -13 -13 -13 -13 -14 -14 -15
-9 -9 -9 -9 -9 -9 -10 -10 -10 -10 -10 -10 -10 -11 -11 -11 -11 -11 -11 -12 -12 -12 -12 -12 -11 -11 -11 -11 -11 -11 -11 -12 -12 -13 -13 -13 -13 -13 -14 -13 -13 -14 -14 -15 -15
-9 -9 -9 -9 -8 -9 -9 -9 -9 -10 -10 -10 -10 -10 -11 -11 -11 -11 -11 -11 -11 -12 -12 -12 -12 -12 -11 -11 -11 -11 -12 -13 -13 -13 -13 -13 -13 -13 -13 -13 -14 -14 -15 -15 -15
-9 -9 -9 -9 -9 -9 -9 -9 -9 -9 -9 -9 -10 -10 -10 -11 -11 -11 -11 -11 -11 -11 -11 -12 -12 -12 -12 -12 -12 -12 -13 -13 -13 -14 -14 -13 -14 -14 -13 -14 -14 -14 -15 -15 -16
-9 -9 -9 -9 -9 -9 -9 -9 -9 -9 -9 -10 -10 -10 -10 -10 -10 -10 -10 -11 -11 -11 -12 -13 -12 -12 -12 -12 -12 -13 -14 -14 -14 -14 -13 -14 -14 -13 -14 -14 -14 -15 -15 -16 -16
-10 -10 -10 -10 -10 -9 -9 -9 -9 -10 -10 -10 -11 -10 -10 -10 -11 -11 -11 -11 -11 -11 -12 -12 -12 -13 -13 -13 -13 -13 -14 -14 -14 -14 -14 -14 -14 -14 -14 -14 -15 -15 -16 -16 -17
-10 -10 -10 -10 -9 -9 -9 -9 -10 -10 -10 -10 -10 -10 -10 -11 -11 -11 -11 -11 -12 -12 -13 -13 -13 -13 -13 -14 -14 -14 -14 -14 -14 -14 -14 -14 -14 -14 -14 -15 -15 -15 -16 -16 -17
Height
5897 5898 5897 5896 5895 5894 5895 5894 5892 5891 5890 5889 5888 5887 5887 5887 5888 5888 5888 5890 5891 5892 5893 5894 5896 5897 5897 5897 5897 5897 5898 5898 5897 5898 5897 5895 5894 5892 5889 5888 5887 5887 5885 5884 5882
5896 5896 5895 5894 5893 5893 5893 5892 5890 5889 5888 5888 5887 5886 5886 5886 5887 5888 5889 5890 5891 5893 5894 5894 5896 5895 5896 5896 5897 5899 5898 5900 5900 5898 5895 5894 5893 5891 5890 5888 5886 5885 5882 5880 5879
5895 5895 5894 5893 5891 5891 5891 5890 5889 5888 5887 5887 5886 5885 5885 5886 5887 5888 5889 5890 5892 5893 5894 5894 5895 5896 5898 5897 5899 5900 5900 5899 5897 5897 5895 5891 5889 5889 5887 5885 5882 5879 5880 5877 5876
5894 5894 5893 5891 5890 5890 5890 5889 5888 5887 5887 5886 5886 5885 5885 5887 5889 5888 5890 5891 5891 5893 5894 5894 5897 5899 5900 5900 5901 5902 5900 5897 5896 5894 5892 5887 5885 5883 5883 5882 5882 5879 5876 5874 5873
5892 5892 5891 5890 5890 5890 5889 5888 5888 5887 5887 5887 5887 5886 5887 5888 5889 5890 5890 5892 5894 5896 5897 5896 5898 5900 5901 5901 5901 5901 5900 5899 5896 5892 5889 5886 5883 5882 5881 5879 5879 5879 5876 5873 5870
5890 5891 5890 5890 5890 5889 5888 5888 5888 5888 5888 5887 5888 5888 5889 5890 5891 5892 5893 5895 5898 5899 5899 5898 5900 5901 5900 5901 5902 5902 5902 5898 5894 5892 5890 5888 5887 5885 5883 5880 5876 5875 5873 5871 5869
5888 5889 5889 5889 5889 5888 5888 5889 5889 5889 5888 5888 5889 5890 5892 5893 5894 5895 5897 5899 5900 5901 5901 5898 5900 5902 5903 5903 5903 5903 5901 5896 5894 5892 5890 5888 5886 5883 5881 5875 5875 5874 5868 5866 5863
5888 5888 5888 5888 5888 5888 5888 5889 5889 5889 5890 5890 5890 5891 5893 5895 5896 5897 5899 5900 5900 5900 5899 5901 5900 5901 5900 5902 5902 5901 5899 5894 5893 5890 5888 5885 5882 5878 5872 5870 5871 5869 5862 5859 5861
5886 5887 5887 5887 5887 5888 5888 5889 5890 5890 5891 5891 5892 5893 5894 5896 5898 5899 5900 5901 5901 5901 5902 5900 5901 5903 5902 5899 5898 5897 5896 5893 5891 5889 5885 5882 5878 5874 5871 5868 5866 5864 5859 5859 5855
5885 5886 5886 5886 5887 5887 5888 5889 5891 5891 5892 5893 5894 5895 5896 5896 5897 5899 5901 5901 5902 5902 5902 5901 5903 5903 5902 5901 5900 5899 5896 5892 5889 5884 5880 5879 5878 5872 5870 5868 5864 5861 5859 5855 5853
5883 5885 5885 5885 5886 5887 5888 5890 5891 5892 5893 5895 5896 5896 5896 5896 5897 5898 5899 5900 5901 5902 5903 5903 5904 5902 5899 5900 5899 5896 5894 5892 5889 5886 5882 5878 5875 5871 5869 5865 5861 5858 5855 5851 5848
5881 5884 5884 5884 5885 5886 5887 5890 5892 5893 5894 5894 5895 5897 5897 5897 5897 5897 5900 5900 5901 5901 5901 5903 5902 5899 5898 5896 5896 5895 5892 5888 5884 5880 5877 5872 5868 5865 5865 5862 5858 5854 5852 5849 5844
5881 5882 5883 5883 5884 5887 5889 5892 5893 5893 5895 5895 5895 5897 5897 5898 5898 5898 5899 5900 5900 5901 5900 5901 5899 5898 5896 5894 5895 5893 5889 5885 5881 5876 5872 5868 5864 5861 5861 5857 5853 5850 5847 5842 5838
5879 5880 5882 5883 5886 5887 5890 5892 5893 5894 5896 5897 5897 5898 5898 5898 5899 5899 5900 5901 5901 5900 5900 5900 5899 5897 5895 5895 5893 5891 5888 5882 5877 5874 5869 5865 5860 5858 5855 5851 5848 5843 5839 5836 5831
5877 5879 5881 5884 5886 5888 5890 5892 5893 5894 5896 5897 5896 5897 5897 5898 5899 5899 5899 5899 5900 5900 5900 5899 5897 5895 5895 5894 5892 5891 5885 5881 5874 5870 5867 5862 5857 5852 5849 5848 5843 5840 5834 5831 5826
5876 5879 5881 5884 5886 5888 5890 5891 5894 5896 5895 5895 5895 5897 5897 5898 5898 5897 5899 5899 5899 5899 5899 5898 5897 5894 5892 5891 5890 5888 5884 5878 5873 5869 5865 5859 5855 5851 5848 5845 5840 5836 5831 5826 5820
5875 5878 5882 5884 5887 5887 5889 5892 5894 5894 5896 5895 5895 5895 5897 5896 5895 5897 5899 5899 5899 5898 5897 5896 5894 5892 5890 5886 5884 5882 5880 5878 5875 5869 5863 5858 5853 5849 5846 5842 5838 5833 5827 5821 5815
5874 5879 5882 5883 5885 5887 5889 5892 5893 5893 5893 5893 5894 5894 5896 5896 5895 5896 5897 5897 5897 5896 5895 5893 5891 5886 5885 5883 5880 5877 5874 5870 5863 5859 5856 5852 5848 5846 5843 5839 5835 5829 5823 5817 5811
5874 5878 5880 5882 5885 5887 5889 5890 5891 5893 5894 5893 5894 5895 5895 5896 5895 5895 5895 5895 5895 5894 5892 5888 5885 5879 5878 5875 5872 5868 5866 5864 5859 5855 5851 5848 5845 5843 5839 5836 5831 5826 5820 5813 5807
5874 5876 5879 5882 5884 5886 5889 5890 5891 5893 5893 5893 5893 5893 5894 5894 5895 5893 5892 5892 5891 5890 5888 5885 5881 5876 5870 5867 5865 5863 5862 5858 5855 5851 5848 5846 5843 5840 5837 5833 5828 5822 5815 5808 5800
5873 5876 5879 5880 5882 5886 5888 5889 5889 5891 5893 5893 5892 5892 5893 5893 5893 5892 5890 5889 5887 5885 5882 5879 5876 5871 5866 5861 5859 5859 5858 5854 5851 5847 5844 5842 5841 5837 5833 5829 5823 5816 5809 5802 5796
5872 5875 5877 5879 5882 5885 5885 5887 5889 5889 5891 5891 5891 5891 5892 5892 5890 5889 5888 5886 5883 5881 5877 5872 5868 5863 5860 5857 5855 5855 5854 5850 5846 5844 5841 5840 5839 5835 5831 5825 5818 5812 5805 5798 5791
5872 5875 5877 5878 5881 5884 5884 5887 5888 5888 5888 5888 5888 5888 5887 5886 5885 5883 5882 5881 5877 5873 5868 5865 5860 5858 5854 5853 5851 5850 5849 5845 5843 5841 5840 5838 5836 5831 5827 5821 5815 5807 5800 5793 5786
5873 5875 5877 5879 5880 5883 5884 5886 5887 5887 5887 5887 5887 5885 5883 5880 5879 5877 5875 5874 5871 5868 5864 5861 5857 5855 5853 5851 5848 5846 5844 5842 5840 5839 5838 5835 5831 5828 5823 5817 5810 5803 5796 5788 5781
5872 5874 5876 5876 5879 5882 5884 5885 5885 5885 5886 5884 5882 5879 5878 5876 5874 5872 5869 5868 5867 5864 5859 5856 5851 5850 5847 5846 5844 5843 5843 5841 5840 5838 5835 5833 5829 5825 5819 5812 5805 5798 5791 5783 5776
5871 5872 5873 5875 5879 5883 5883 5884 5884 5884 5884 5882 5879 5877 5875 5872 5869 5866 5863 5861 5860 5860 5857 5853 5847 5844 5843 5842 5840 5840 5840 5839 5838 5835 5832 5828 5825 5820 5815 5808 5801 5793 5786 5779 5771
5870 5871 5873 5876 5879 5881 5882 5883 5882 5881 5880 5878 5876 5874 5872 5869 5866 5864 5861 5858 5856 5855 5853 5850 5847 5844 5842 5839 5838 5838 5837 5836 5836 5833 5829 5826 5822 5818 5811 5804 5796 5790 5782 5774 5765
Wind_Speed
7 6 6 6 5 5 6 8 9 10 9 9 7 5 6 7 9 11 10 9 9 8 11 18 19 14 9 4 1 5 9 8 15 14 23 25 19 19 18 12 9 7 9 12 14
6 10 10 6 5 5 6 9 8 8 7 6 4 3 5 7 8 9 10 10 11 12 19 24 20 13 9 6 3 5 13 7 16 22 21 21 21 23 19 19 16 13 11 13 14
11 12 10 6 4 5 6 7 6 5 4 2 1 4 6 8 10 11 11 12 14 17 23 24 22 16 9 8 7 6 9 21 26 21 29 23 19 17 17 19 16 18 17 14 17
16 13 9 6 4 5 5 4 3 2 2 3 5 7 10 11 12 14 15 17 18 19 22 25 21 17 12 11 8 7 14 22 21 19 29 25 17 15 16 16 19 19 22 24 26
9 9 7 6 5 4 2 2 2 4 5 7 9 11 13 14 14 16 18 16 15 14 15 19 18 18 15 10 7 9 14 18 14 15 26 21 22 15 17 24 31 25 22 25 23
9 8 7 6 4 1 2 3 4 6 8 11 12 15 16 17 15 14 12 10 8 4 9 14 13 16 17 13 9 13 12 10 13 16 22 22 24 25 23 28 26 26 28 24 28
11 9 7 6 3 3 5 6 7 8 11 13 15 17 16 16 14 12 8 9 12 7 9 13 12 13 15 5 8 9 8 14 17 22 23 24 26 30 27 29 18 23 32 30 24
12 10 9 6 5 6 7 8 9 10 11 14 16 17 18 16 14 11 9 9 11 13 13 9 9 13 3 7 9 10 12 14 23 23 24 31 33 32 33 21 25 25 14 20 24
12 11 9 7 7 9 9 9 10 11 10 11 13 16 16 15 11 8 7 4 5 8 9 8 5 2 1 6 9 15 11 14 22 24 26 32 35 29 28 36 31 26 24 22 15
13 12 9 8 9 9 9 9 8 8 8 9 9 13 15 15 13 8 8 7 7 6 7 9 9 3 1 4 4 11 13 19 24 28 31 35 28 31 28 30 33 19 25 18 8
14 12 10 10 11 10 10 11 10 10 8 7 6 7 11 13 14 10 9 10 11 10 11 8 2 6 7 7 9 13 18 22 25 28 33 33 31 32 32 29 17 27 25 8 22
14 13 11 11 12 13 12 10 8 9 7 9 8 6 11 12 12 13 15 17 16 15 13 10 5 10 8 8 11 17 23 28 29 33 35 35 37 35 29 21 32 27 18 22 27
15 13 12 12 12 11 8 9 8 8 8 8 10 10 12 11 10 14 15 12 13 13 13 7 9 8 11 11 18 22 29 33 30 31 33 38 37 36 29 32 27 25 30 25 28
15 14 13 11 11 9 8 9 8 7 8 9 9 9 9 9 11 13 11 12 9 7 8 6 7 9 12 17 19 23 29 32 31 33 36 37 37 35 32 31 33 34 26 26 30
15 14 12 10 9 9 9 6 5 5 8 9 11 10 8 13 12 15 16 17 14 5 7 10 11 15 18 20 26 28 31 32 30 33 38 36 35 32 33 31 26 23 25 29 33
15 13 11 11 9 10 7 5 4 9 9 9 8 8 6 7 8 10 3 9 9 11 12 14 19 22 27 29 30 28 26 28 30 32 31 34 30 30 29 20 22 27 30 33 36
14 12 12 11 10 9 9 7 11 12 11 12 11 12 9 9 9 3 4 7 15 17 18 20 23 26 28 31 31 35 36 28 23 31 29 27 27 28 23 18 24 27 31 33 36
14 13 12 12 12 12 12 11 12 14 12 13 11 10 6 7 8 6 11 15 19 20 17 17 22 23 24 29 34 29 25 25 29 31 30 29 29 23 20 18 26 28 32 35 37
15 13 14 13 13 13 14 12 16 13 11 13 12 10 10 10 15 14 18 22 20 19 23 24 28 30 30 35 34 33 29 27 29 30 29 28 21 17 19 22 26 29 33 36 38
16 15 14 15 15 16 16 18 17 12 10 9 10 11 12 10 15 19 23 24 26 22 22 24 26 33 39 37 33 29 29 28 28 28 26 20 15 17 19 23 25 32 36 39 40
14 14 16 16 17 16 19 21 19 17 13 13 12 16 18 17 20 24 28 29 30 28 29 31 36 39 34 32 30 26 22 24 25 22 19 14 15 18 21 24 30 34 38 39 39
16 16 16 17 17 17 21 20 18 16 13 14 13 16 19 22 23 24 29 31 30 32 32 32 28 26 27 27 28 25 19 19 18 15 10 14 16 18 21 27 32 36 38 39 39
15 16 16 17 15 17 19 17 18 16 14 14 12 14 17 20 24 24 25 25 23 25 26 23 26 26 26 27 27 22 17 16 9 8 10 14 17 19 23 29 34 37 38 38 39
15 15 16 14 12 12 13 12 11 12 12 11 9 12 16 19 20 22 23 22 21 22 22 22 22 23 23 22 22 20 14 8 7 9 13 16 19 22 27 32 34 36 37 38 42
17 16 14 14 12 12 11 10 10 10 9 10 11 15 17 19 21 21 20 18 16 17 18 20 24 23 21 19 17 14 9 3 6 11 14 18 20 25 30 33 34 37 38 42 43
17 17 17 16 13 11 11 10 9 8 8 8 12 14 15 17 20 20 22 23 22 17 16 17 23 22 20 20 19 15 9 10 11 13 16 20 24 28 31 32 35 38 40 43 43
19 19 20 16 12 11 10 9 9 8 7 9 12 14 15 17 19 21 23 24 24 22 18 17 13 16 16 17 16 14 12 6 10 16 20 23 25 29 30 33 36 36 40 44 42
Wind_Direction
355 346 321 297 274 274 277 287 298 297 296 293 281 259 232 218 210 205 204 194 185 181 168 152 137 119 113 132 218 310 321 339 359 3 15 10 350 5 358 4 344 340 324 327 336
310 330 323 296 279 287 293 293 298 301 304 295 278 235 201 182 190 194 200 180 168 162 162 148 146 149 168 216 195 265 338 348 345 351 338 346 339 347 341 336 331 321 314 313 313
287 307 307 286 291 301 297 294 300 319 326 325 134 138 143 152 167 174 173 164 158 168 168 164 168 175 190 232 261 267 311 351 359 350 345 322 329 331 331 328 326 318 319 314 317
287 287 287 285 296 297 289 307 334 19 67 104 120 135 138 147 158 157 157 164 170 180 182 173 183 192 206 234 276 302 349 356 346 340 347 8 336 323 320 319 314 321 326 330 325
256 274 274 277 281 280 304 21 74 98 113 118 123 128 130 138 146 156 164 178 177 192 203 191 202 207 221 243 269 328 348 343 334 355 348 3 6 336 331 328 325 313 309 316 313
246 260 255 258 257 260 108 116 125 126 126 123 126 125 131 133 140 153 171 160 162 196 239 220 226 221 234 255 313 355 348 353 351 353 360 359 349 340 332 323 309 305 297 297 301
254 242 238 236 218 149 139 145 140 136 132 129 129 129 133 131 135 139 158 133 125 126 193 228 236 244 277 333 349 345 338 341 337 343 350 349 343 339 333 324 298 308 296 272 284
243 228 219 208 172 151 157 152 143 140 136 137 137 138 139 138 140 146 160 161 156 157 173 202 230 255 8 337 309 24 8 327 334 343 344 341 337 341 348 17 12 334 350 291 303
215 216 205 189 164 166 166 156 154 145 150 148 148 149 147 141 138 150 162 171 187 181 178 183 169 105 264 304 359 354 348 314 323 333 336 337 335 338 344 349 344 336 332 333 307
207 207 195 176 172 175 165 159 159 145 149 146 156 153 151 146 150 169 166 165 177 167 171 166 134 186 237 288 313 313 310 310 323 326 326 327 332 333 341 331 334 341 332 330 347
200 196 187 177 176 173 172 171 154 151 154 150 152 160 163 158 151 162 140 124 120 118 111 110 50 294 183 257 293 298 312 307 310 314 314 321 323 325 334 331 319 331 341 316 340
192 191 183 178 178 186 187 173 157 153 163 167 159 187 172 178 168 160 171 170 165 155 170 184 165 216 275 306 332 311 302 306 311 315 318 321 317 324 330 322 320 335 330 320 336
188 188 182 180 188 194 182 166 170 166 171 170 168 187 193 193 186 179 185 193 189 194 214 230 233 293 309 318 304 310 315 311 307 314 313 313 315 314 321 316 328 328 329 328 332
184 185 185 181 188 172 175 174 181 179 194 172 158 187 193 201 198 193 197 186 188 216 269 274 314 312 312 291 299 304 310 312 309 309 311 313 310 308 310 315 319 324 328 330 331
184 188 185 182 179 159 181 171 191 182 199 193 178 167 200 185 198 197 200 218 252 201 255 292 281 269 273 288 297 307 312 319 314 308 309 307 306 303 305 317 326 331 329 332 330
187 189 182 176 167 183 161 159 169 174 183 194 183 164 182 188 192 212 276 244 241 220 243 267 271 276 288 294 302 302 303 310 300 302 299 307 308 306 315 330 331 327 326 328 330
186 184 175 169 167 165 156 154 154 163 169 146 151 132 141 161 181 181 354 302 286 279 274 292 283 285 286 291 296 294 290 290 282 288 306 310 309 311 321 320 322 324 327 329 333
178 177 167 167 175 164 164 171 176 194 172 154 147 139 166 255 283 308 308 318 318 314 297 273 281 288 285 288 294 295 295 302 307 312 317 320 321 323 318 311 320 325 325 330 335
186 181 177 184 177 184 173 166 190 192 175 167 173 189 215 240 275 278 286 291 302 299 289 289 289 297 298 302 306 307 308 311 311 313 318 321 328 333 317 314 322 321 328 333 335
187 187 189 185 185 187 179 182 203 200 211 233 210 233 251 266 249 263 275 288 304 296 289 289 291 298 300 302 301 304 313 314 310 310 314 319 326 325 321 322 321 327 332 335 336
190 188 184 186 189 188 183 191 209 218 241 254 241 230 243 247 257 265 276 288 298 295 301 297 299 299 298 298 301 311 317 308 306 313 315 319 326 329 326 325 329 333 334 335 334
186 180 183 191 193 190 202 204 217 242 255 263 258 253 256 261 271 277 275 281 289 296 297 297 298 298 293 294 298 309 319 316 316 314 314 317 322 326 329 330 333 333 334 333 333
181 182 188 197 206 196 212 216 228 251 268 261 268 272 279 279 282 287 290 293 295 294 291 291 298 300 299 304 312 322 324 318 299 292 311 320 328 329 331 334 334 334 334 333 333
184 194 199 204 212 211 225 235 248 272 286 291 284 273 276 277 280 283 284 288 286 287 285 286 291 297 302 303 303 304 333 299 290 327 323 324 331 330 332 336 336 334 335 335 335
186 191 199 214 213 218 230 253 263 286 299 312 300 282 281 285 291 293 292 291 292 293 297 302 302 308 307 311 306 308 321 238 289 312 320 330 327 333 338 338 336 338 338 337 336
192 200 207 224 239 239 250 266 286 299 301 272 276 292 305 306 304 305 303 303 304 304 305 306 310 314 319 322 316 317 318 292 320 321 323 334 336 338 339 337 340 341 338 337 336
203 213 226 236 248 257 281 302 306 301 301 299 300 302 300 299 300 301 305 305 308 314 318 317 297 300 313 322 313 308 307 309 318 326 333 337 337 337 340 342 342 340 339 339 339